[[{"header":{"parameterUnit":"m.s-1","parameterCategory":1,"la1":30.2991,"la2":30.254,"lo1":-89.0895,"lo2":-89.0444,"dy":0.0017,"dx":0.0017,"nx":28,"ny":28,"refTime":"2023-11-07T03:00:00:Z","depth":0,"parameterNumber":2,"parameterNumberName":"U-component_of_WINDS"},"data":[0,0,0,0,0,0,0,0,0,0,0,0,0,0,0,0,0,0,0,0,0,0,0,0,0,0,0,0,0,0,0,0,0,0,0,0,0,0,0,0,0,0,0,0,0,0,0,0,0,0,0,0,0,0,0,0,0,0,-0.0883,-0.0883,0,-0.0888,-0.0888,-0.0888,-0.0901,-0.0901,-0.0901,-0.0902,-0.0908,-0.0907,-0.0907,0,0,0,0,0,0,0,0,0,0,0,0,0,-0.0885,-0.0885,-0.0883,-0.0883,-0.0883,-0.0888,-0.0888,-0.0888,-0.0901,-0.0901,-0.0901,-0.0902,-0.0908,-0.0907,-0.0907,0,0,0,0,0,0,0,0,0,0,0,0,0,-0.0886,-0.0885,-0.0883,-0.089,-0.089,-0.0888,-0.0888,-0.0888,-0.0901,-0.0901,-0.0902,-0.0902,-0.0908,-0.0907,-0.0907,-0.0898,0,0,-0.0907,-0.0907,0,0,0,0,0,0,0,0,-0.0886,-0.0886,-0.0889,-0.0889,-0.089,-0.0894,-0.0891,-0.0892,-0.0901,-0.0897,-0.0902,-0.0902,-0.0903,-0.0903,-0.0903,-0.0899,-0.0899,-0.0907,-0.0907,-0.0907,-0.0907,0,0,0,0,0,0,0,-0.0886,-0.0886,-0.0885,-0.0889,-0.0889,-0.0893,-0.0894,-0.0891,-0.0897,-0.0897,-0.0898,-0.0899,-0.0903,-0.0903,-0.0903,-0.0899,-0.0907,-0.0907,-0.0907,-0.0907,-0.0889,-0.0889,0,0,0,0,0,0,-0.0885,-0.0886,-0.0885,-0.0885,-0.0889,-0.0893,-0.0893,-0.0892,-0.0898,-0.0899,-0.0898,-0.0899,-0.0903,-0.0904,-0.0904,-0.0894,-0.0907,-0.0907,-0.0907,-0.0889,-0.0889,-0.0888,0,0,0,0,0,0,-0.0885,-0.0885,-0.0884,-0.0886,-0.0886,-0.0892,-0.0891,-0.0892,-0.0892,-0.0898,-0.09,-0.0897,-0.0904,-0.0904,-0.09,-0.0895,-0.0907,-0.0906,-0.089,-0.0889,-0.0889,-0.0875,0,0,0,0,0,0,-0.0885,-0.0884,-0.0881,-0.0885,-0.0886,-0.088,-0.0891,-0.0892,-0.0892,-0.0893,-0.0898,-0.0899,-0.0904,-0.09,-0.09,-0.0895,-0.0906,-0.089,-0.089,-0.0889,-0.0876,-0.0874,-0.0873,0,0,0,0,0,-0.0885,-0.0877,-0.0881,-0.088,-0.0881,-0.088,-0.088,-0.0886,-0.0892,-0.0888,-0.0892,-0.0898,-0.0895,-0.09,-0.0899,-0.0894,-0.0891,-0.089,-0.0889,-0.0877,-0.0875,-0.0873,0,0,0,0,0,0,-0.0871,-0.0877,-0.0882,-0.0875,-0.0877,-0.0882,-0.0878,-0.0883,-0.0884,-0.0885,-0.0893,-0.0894,-0.0889,-0.0891,-0.0896,-0.0887,-0.0894,-0.0893,-0.0885,-0.0883,-0.0881,-0.0881,-0.0906,0,0,0,0,0,-0.0867,-0.0865,-0.0871,-0.0864,-0.0865,-0.0871,-0.0871,-0.0875,-0.0878,-0.0879,-0.0882,-0.0884,-0.0884,-0.0884,-0.0884,-0.0877,-0.0878,-0.0873,-0.0871,-0.087,-0.0869,-0.0867,-0.0865,-0.0886,-0.0886,-0.0886,0,0,-0.0859,-0.0862,-0.0861,-0.0862,-0.0864,-0.0862,-0.0872,-0.0869,-0.0868,-0.0878,-0.0875,-0.0878,-0.0881,-0.0876,-0.0873,-0.0877,-0.0864,-0.0869,-0.0868,-0.0868,-0.0865,-0.0863,-0.0862,-0.0885,-0.0885,-0.0885,0,0,-0.0844,-0.0846,-0.0841,-0.0843,-0.0846,-0.085,-0.0849,-0.0854,-0.0856,-0.0853,-0.0861,-0.086,-0.0859,-0.0861,-0.0862,-0.0848,-0.0855,-0.0848,-0.0839,-0.0836,-0.0835,-0.0833,-0.0829,-0.0827,-0.0847,-0.0847,-0.0847,0,-0.0834,-0.0831,-0.0838,-0.0835,-0.0835,-0.0845,-0.084,-0.0842,-0.0845,-0.0845,-0.0849,-0.0849,-0.0852,-0.0848,-0.0844,-0.0845,-0.0844,-0.0848,-0.0834,-0.0833,-0.0832,-0.0828,-0.0826,-0.0847,-0.0847,-0.0847,-0.0847,0,-0.0818,-0.0816,-0.0812,-0.0815,-0.0815,-0.0811,-0.0818,-0.0817,-0.0822,-0.0827,-0.0824,-0.0827,-0.0829,-0.0828,-0.0833,-0.0825,-0.0827,-0.0833,-0.0841,-0.0829,-0.0825,-0.0824,-0.0845,-0.0846,-0.0846,-0.0846,0,0,-0.0794,-0.0801,-0.0799,-0.0801,-0.0806,-0.0805,-0.0802,-0.0803,-0.0803,-0.0805,-0.0803,-0.0802,-0.0808,-0.0809,-0.0814,-0.0812,-0.0802,-0.0818,-0.0818,-0.0815,-0.0794,-0.079,-0.0788,-0.0806,-0.0806,-0.0805,-0.0794,0,-0.078,-0.0775,-0.0782,-0.0776,-0.0774,-0.0784,-0.0782,-0.0784,-0.0788,-0.0788,-0.0793,-0.0793,-0.08,-0.08,-0.0799,-0.0803,-0.0798,-0.0804,-0.0805,-0.0805,-0.0804,-0.0786,-0.0782,-0.0771,-0.0793,-0.0793,-0.0792,0,-0.0763,-0.0764,-0.0758,-0.0764,-0.0763,-0.0761,-0.0763,-0.0763,-0.0767,-0.077,-0.0771,-0.0778,-0.0776,-0.0784,-0.0782,-0.0786,-0.0787,-0.079,-0.0789,-0.079,-0.0798,-0.0786,-0.0767,-0.0766,-0.079,-0.079,-0.0791,0,-0.0746,-0.0746,-0.0743,-0.0744,-0.075,-0.0749,-0.0751,-0.0756,-0.0756,-0.0758,-0.0759,-0.0761,-0.0762,-0.0764,-0.0771,-0.0775,-0.0768,-0.0776,-0.0771,-0.0771,-0.0769,-0.0769,-0.075,-0.0769,-0.0769,-0.0769,-0.0769,0,-0.073,-0.0726,-0.0736,-0.0734,-0.073,-0.0738,-0.0734,-0.0737,-0.0741,-0.074,-0.0749,-0.0748,-0.0757,-0.0758,-0.0763,-0.0761,-0.0762,-0.0764,-0.0766,-0.0764,-0.0763,-0.0764,-0.0765,-0.0769,-0.0769,-0.0769,-0.0769,0,-0.071,-0.0717,-0.0714,-0.0721,-0.0722,-0.0719,-0.0725,-0.0724,-0.0728,-0.0727,-0.0728,-0.0735,-0.0736,-0.0744,-0.0746,-0.075,-0.0746,-0.0749,-0.0745,-0.0746,-0.0741,-0.0741,-0.0722,-0.072,-0.074,-0.074,-0.0739,0,-0.07,-0.0697,-0.0703,-0.0704,-0.0706,-0.0706,-0.0707,-0.0715,-0.0715,-0.072,-0.0718,-0.072,-0.0722,-0.0723,-0.0729,-0.0731,-0.0735,-0.0728,-0.0735,-0.0733,-0.0735,-0.0735,-0.0735,-0.0726,-0.0726,-0.0726,-0.0725,0,-0.068,-0.0684,-0.0685,-0.0687,-0.0688,-0.069,-0.0692,-0.0692,-0.0701,-0.0701,-0.0703,-0.0704,-0.0707,-0.0709,-0.0712,-0.0716,-0.0722,-0.0723,-0.0722,-0.072,-0.0718,-0.0719,-0.0741,-0.0724,-0.0724,-0.0724,-0.0724,-0.0724,-0.0665,-0.0664,-0.0668,-0.0669,-0.0672,-0.0674,-0.0674,-0.0679,-0.068,-0.0683,-0.0687,-0.0688,-0.0693,-0.0698,-0.0701,-0.0702,-0.0706,-0.0704,-0.0704,-0.0704,-0.0703,-0.0718,-0.0703,-0.0703,-0.0703,-0.0703,-0.0703,0,-0.0647,-0.065,-0.0651,-0.0655,-0.0656,-0.0662,-0.0665,-0.0666,-0.0666,-0.067,-0.0672,-0.0673,-0.0675,-0.0682,-0.0685,-0.0684,-0.0688,-0.0685,-0.0685,-0.0686,-0.0699,-0.07,-0.0682,-0.0682,-0.0682,-0.0682,-0.0682,-0.0682,-0.0637,-0.0635,-0.0639,-0.0639,-0.0642,-0.0643,-0.0644,-0.0647,-0.065,-0.0652,-0.0653,-0.0658,-0.0663,-0.0666,-0.0669,-0.0671,-0.0672,-0.0668,-0.0671,-0.0683,-0.0685,-0.0687,-0.0688,-0.0668,-0.0668,-0.0658,-0.0658,-0.0658]},{"header":{"parameterUnit":"m.s-1","parameterCategory":1,"la1":30.2991,"la2":30.254,"lo1":-89.0895,"lo2":-89.0444,"dy":0.0017,"dx":0.0017,"nx":28,"ny":28,"refTime":"2023-11-07T03:00:00:Z","depth":0,"parameterNumber":3,"parameterNumberName":"V-component_of_WINDS"},"data":[0,0,0,0,0,0,0,0,0,0,0,0,0,0,0,0,0,0,0,0,0,0,0,0,0,0,0,0,0,0,0,0,0,0,0,0,0,0,0,0,0,0,0,0,0,0,0,0,0,0,0,0,0,0,0,0,0,0,2.6702,2.6701,0,2.6643,2.6643,2.6642,2.6605,2.6605,2.6605,2.6605,2.6538,2.6536,2.6534,0,0,0,0,0,0,0,0,0,0,0,0,0,2.6775,2.6774,2.6702,2.6701,2.67,2.6644,2.6643,2.6642,2.6605,2.6605,2.6605,2.6605,2.6538,2.6536,2.6534,0,0,0,0,0,0,0,0,0,0,0,0,0,2.6733,2.6774,2.6702,2.6675,2.6672,2.6644,2.6643,2.6642,2.6605,2.6605,2.6605,2.6605,2.6539,2.6536,2.6534,2.6525,0,0,2.6527,2.6526,0,0,0,0,0,0,0,0,2.6735,2.673,2.668,2.6677,2.6674,2.6632,2.6644,2.6602,2.6605,2.6631,2.6605,2.6604,2.6569,2.6564,2.6553,2.6522,2.6519,2.6526,2.6525,2.6524,2.6523,0,0,0,0,0,0,0,2.6738,2.6732,2.6678,2.6679,2.6675,2.6664,2.6658,2.6636,2.6602,2.6628,2.6626,2.662,2.6567,2.6556,2.6551,2.6518,2.6527,2.6524,2.6523,2.6522,2.6476,2.6476,0,0,0,0,0,0,2.6746,2.6735,2.668,2.6677,2.6705,2.6663,2.6656,2.6645,2.6602,2.6595,2.662,2.6618,2.656,2.6554,2.6549,2.6535,2.6524,2.6522,2.652,2.6476,2.6476,2.6476,0,0,0,0,0,0,2.6748,2.6742,2.6683,2.6705,2.6697,2.6662,2.665,2.6644,2.6633,2.6596,2.6589,2.6615,2.6559,2.6552,2.6532,2.6533,2.6521,2.6518,2.6476,2.6476,2.6476,2.6509,0,0,0,0,0,0,2.675,2.6743,2.674,2.6705,2.6696,2.6668,2.665,2.6643,2.663,2.6627,2.6589,2.6583,2.6559,2.6536,2.6529,2.6529,2.6517,2.6475,2.6476,2.6476,2.6507,2.651,2.6513,0,0,0,0,0,2.6753,2.675,2.674,2.6734,2.6692,2.6669,2.6663,2.6637,2.663,2.6626,2.6603,2.6584,2.6534,2.6534,2.6526,2.6525,2.6475,2.6476,2.6476,2.6506,2.651,2.6512,0,0,0,0,0,0,2.6782,2.6745,2.6733,2.6719,2.6698,2.6663,2.6657,2.6642,2.662,2.6618,2.6585,2.6576,2.6559,2.654,2.6541,2.6514,2.6502,2.6501,2.6528,2.6531,2.6533,2.6538,2.6515,0,0,0,0,0,2.6788,2.6774,2.6741,2.6731,2.6721,2.6691,2.668,2.6663,2.6638,2.6628,2.6602,2.6577,2.6556,2.6542,2.652,2.6505,2.6496,2.65,2.6503,2.6505,2.6505,2.6495,2.6497,2.6478,2.6478,2.6478,0,0,2.6797,2.6775,2.6768,2.6737,2.6718,2.6703,2.6684,2.6668,2.6656,2.6624,2.6605,2.6585,2.6554,2.6537,2.6528,2.652,2.6508,2.6506,2.6508,2.6506,2.6496,2.6498,2.6499,2.6478,2.6478,2.6478,0,0,2.6808,2.679,2.6781,2.6763,2.6736,2.6716,2.6714,2.6682,2.6668,2.6648,2.6625,2.6609,2.6573,2.6552,2.6537,2.6542,2.6524,2.6535,2.6548,2.654,2.6541,2.6542,2.6544,2.6545,2.6535,2.6535,2.6535,0,2.6823,2.6801,2.6777,2.6764,2.675,2.6725,2.6714,2.6697,2.6663,2.6654,2.6647,2.6602,2.658,2.6557,2.6559,2.6547,2.6543,2.6539,2.6543,2.6544,2.6545,2.6546,2.6547,2.6537,2.6536,2.6536,2.6536,0,2.6821,2.6806,2.6801,2.6773,2.6759,2.6746,2.6719,2.6708,2.6692,2.6673,2.6652,2.6625,2.6598,2.6591,2.6574,2.6566,2.6563,2.655,2.6537,2.6549,2.6549,2.6549,2.6539,2.6538,2.6538,2.6537,0,0,2.6846,2.6807,2.6805,2.6792,2.6761,2.6748,2.6735,2.6711,2.6702,2.6679,2.6666,2.6637,2.6626,2.6609,2.659,2.6582,2.6588,2.657,2.6569,2.6574,2.6577,2.6587,2.6588,2.6576,2.6576,2.6576,2.658,0,2.6852,2.6829,2.6808,2.6792,2.6777,2.6754,2.6742,2.672,2.6702,2.6686,2.6664,2.6645,2.6631,2.6621,2.6613,2.6589,2.6588,2.6588,2.6562,2.6561,2.657,2.6588,2.6598,2.6602,2.658,2.658,2.658,0,2.6855,2.6837,2.6821,2.6792,2.6785,2.6775,2.6752,2.6738,2.6713,2.67,2.6682,2.6663,2.6645,2.6635,2.6611,2.6612,2.66,2.6586,2.6586,2.6582,2.6571,2.6584,2.6603,2.6604,2.658,2.658,2.658,0,2.6876,2.6847,2.6834,2.6823,2.679,2.6783,2.6769,2.6744,2.6731,2.671,2.6701,2.6678,2.6665,2.6646,2.662,2.6615,2.6598,2.6585,2.6586,2.6586,2.6582,2.6583,2.66,2.6575,2.6575,2.6575,2.6575,0,2.6884,2.6875,2.6843,2.6834,2.6823,2.6798,2.6787,2.677,2.6748,2.6735,2.6712,2.6699,2.6666,2.6649,2.6629,2.6611,2.6605,2.6593,2.6588,2.6595,2.6597,2.6586,2.6585,2.6576,2.6575,2.6575,2.6575,0,2.6905,2.6883,2.6867,2.6838,2.683,2.6823,2.6797,2.6787,2.6769,2.6752,2.6747,2.6716,2.6695,2.6668,2.6638,2.6624,2.6609,2.66,2.6618,2.6615,2.6617,2.6617,2.6627,2.6627,2.6604,2.6604,2.6604,0,2.6911,2.6904,2.6875,2.6866,2.6853,2.6838,2.6826,2.6801,2.6788,2.6761,2.6754,2.6732,2.6713,2.668,2.6654,2.6631,2.6622,2.6627,2.6618,2.6626,2.6622,2.6622,2.6621,2.6629,2.6629,2.663,2.663,0,2.6925,2.6915,2.69,2.6881,2.6868,2.6851,2.6833,2.6826,2.6797,2.6785,2.6765,2.675,2.6721,2.6699,2.6673,2.6655,2.6637,2.6634,2.6632,2.6639,2.665,2.6645,2.6624,2.6633,2.6633,2.6632,2.6632,2.6632,2.6938,2.6931,2.691,2.6894,2.6879,2.6863,2.6853,2.6834,2.6818,2.6794,2.678,2.676,2.6735,2.6699,2.6683,2.6666,2.6659,2.6657,2.6656,2.6656,2.6659,2.6654,2.666,2.666,2.666,2.666,2.666,0,2.6951,2.6937,2.6923,2.69,2.6887,2.6875,2.6854,2.6844,2.6828,2.6808,2.679,2.6767,2.6747,2.672,2.6697,2.6688,2.6679,2.6683,2.6683,2.6679,2.6666,2.667,2.669,2.669,2.669,2.669,2.669,2.669,2.6956,2.6944,2.6932,2.6911,2.6896,2.6879,2.6869,2.6854,2.6838,2.6814,2.6798,2.6782,2.6759,2.6734,2.6714,2.6706,2.6698,2.6705,2.6694,2.6683,2.668,2.6677,2.668,2.6703,2.6703,2.6709,2.6709,2.6709]}]]